GLOBALSTAR M094 [+]

Last updated on July 6, 2021, 3:36 p.m. UTC

1 39074U 13005C   21187.15676349 -.00000083  00000-0  11737-3 0  9996
2 39074  51.9949 252.6842 0000291 139.9410 220.1478 12.62268276390288
UTC
Height (km)
Latitude
Longitude
Inclination
Orbital Period
UTC large
Height (km)
Speed (km/s)
/
Latitude / Longitude
Inclination (degrees)
Orbital Period (minutes)
Azimuth
Elevation
Range (km)
Doppler Factor
iOS Compass Heading
iOS Angle